EDT,Max TemperatureF,Mean TemperatureF,Min TemperatureF,Max Dew PointF,MeanDew PointF,Min DewpointF,Max Humidity, Mean Humidity, Min Humidity, Max Sea Level PressureIn, Mean Sea Level PressureIn, Min Sea Level PressureIn, Max VisibilityMiles, Mean VisibilityMiles, Min VisibilityMiles, Max Wind SpeedMPH, Mean Wind SpeedMPH, Max Gust SpeedMPH,PrecipitationIn, CloudCover, Events, WindDirDegrees
2013-10-1,77,66,54,60,55,54,100,75,50,30.23,30.14,30.07,10,5,0,9,2,10,0.00,5,Fog,310
2013-10-2,79,67,54,61,56,54,100,73,45,30.24,30.17,30.09,10,5,0,13,3,17,0.00,4,Fog,334
2013-10-3,79,68,56,61,58,55,100,74,48,30.21,30.14,30.08,10,9,2,10,2,13,0.00,4,,165
2013-10-4,80,68,56,63,58,55,100,74,48,30.24,30.16,30.10,10,6,0,12,2,15,0.00,3,Fog,330
2013-10-5,81,69,57,63,59,57,100,73,45,30.24,30.17,30.06,10,4,0,10,2,15,0.00,5,Fog,313
2013-10-6,78,68,57,63,59,57,100,77,54,30.12,30.04,29.89,10,4,0,16,4,22,0.49,3,Fog-Rain,163
2013-10-7,65,59,53,63,56,47,100,76,52,30.05,29.92,29.81,10,7,1,24,11,29,1.12,6,Rain,340
2013-10-8,67,58,49,52,47,42,93,71,48,30.24,30.14,30.04,10,10,10,14,3,18,0.00,2,,8
2013-10-9,73,59,44,51,46,41,100,71,42,30.25,30.20,30.12,10,7,0,9,2,10,0.00,0,Fog,303
2013-10-10,72,59,45,51,47,45,100,72,44,30.17,30.13,30.04,10,5,0,22,8,26,0.00,4,Fog,337
2013-10-11,74,61,48,54,51,47,93,69,44,30.06,30.02,29.97,10,10,10,21,6,25,0.00,0,,336
2013-10-12,73,61,49,58,54,49,100,77,53,30.11,30.06,30.00,10,10,10,15,4,20,0.00,5,,341
2013-10-13,72,66,59,62,59,57,97,79,61,30.27,30.18,30.11,10,8,3,13,4,15,0.35,8,Rain,352
2013-10-14,69,63,56,61,57,54,100,84,68,30.30,30.23,30.16,10,8,1,9,2,13,T,7,Rain,346
2013-10-15,65,61,56,57,55,53,100,86,72,30.25,30.16,30.07,10,9,5,8,2,10,0.02,6,Rain,169
2013-10-16,68,60,51,57,53,51,100,82,63,30.12,30.06,29.97,10,5,0,8,2,10,T,6,Fog-Rain,166
2013-10-17,68,61,54,63,59,52,93,87,81,29.98,29.92,29.85,10,10,10,23,7,26,0.04,6,Rain,183
2013-10-18,69,59,48,53,49,45,93,74,55,30.07,29.99,29.93,10,10,10,20,6,23,0.00,3,,350
2013-10-19,64,56,48,55,52,44,100,78,56,30.01,29.93,29.86,10,8,1,13,3,17,T,6,Rain,326
2013-10-20,64,53,41,45,41,31,93,65,36,30.10,30.03,29.96,10,10,10,14,4,17,0.00,0,,180
2013-10-21,66,52,37,51,42,36,100,76,52,30.17,30.11,30.02,10,6,0,13,3,16,0.00,3,Fog,169
2013-10-22,68,58,48,52,49,46,96,72,48,30.02,29.92,29.82,10,10,7,13,4,17,0.01,5,Rain,338
2013-10-23,58,48,37,46,35,27,93,65,36,30.04,29.86,29.75,10,10,10,28,10,37,0.00,1,,346
2013-10-24,54,44,34,36,31,28,82,64,46,30.17,30.12,30.06,10,10,10,14,8,20,0.00,5,,347
2013-10-25,47,38,29,34,25,22,85,62,38,30.38,30.31,30.18,10,10,9,25,10,32,T,2,,348
2013-10-26,57,41,25,37,28,22,92,61,30,30.35,30.24,30.08,10,9,2,13,3,16,0.00,1,,177
2013-10-27,65,54,42,47,41,35,86,65,44,30.13,30.09,30.04,10,10,10,14,3,21,0.00,5,,338
2013-10-28,61,53,45,53,49,45,93,83,72,30.27,30.21,30.13,10,9,4,8,1,9,0.13,7,Rain,332
2013-10-29,68,57,45,52,48,44,100,71,42,30.38,30.32,30.24,10,7,0,8,2,12,0.00,5,Fog,358
2013-10-30,75,63,50,56,52,49,96,71,46,30.30,30.23,30.16,10,10,10,8,2,14,0.00,3,,151
2013-10-31,66,60,53,61,55,51,93,80,67,30.17,30.04,29.84,10,10,7,32,8,43,0.03,4,Rain,177